Погода в Симсире

Россия / Чеченская Республика     43°00′32″N   46°27′56″E
темп.,
°C
ветер,
м/с
пор.,
м/с
влажн.,
%
обл.,
%
осадки,
мм/ч
давл.,
гПа
погр.,
м
20 июня, вс
вс2000:00+18ю336714 0.0 101439
03:00+18ю33603 0.0 101439
06:00+20ю33510 0.0 101348
09:00+27св023150 0.0 1011628
12:00+32ссв232395 0.0 10101656
15:00+32ссв222510 0.1 10101609
18:00+28юв01500 0.0 100925
21:00+22ю22590 0.0 101224
21 июня, пн
пн2100:00+20ю22570 0.0 101325
03:00+19ю32470 0.0 101321
06:00+21ююв22510 0.0 101343
09:00+27св22340 0.0 1012782
12:00+32ссв23260 0.0 10101434
15:00+33всв22270 0.0 10081297
18:00+28вюв11510 0.0 100850
21:00+22ю32600 0.0 101124
22 июня, вт
вт2200:00+21ю22630 0.0 101115
03:00+20ююв22550 0.0 101222
06:00+21ю11510 0.0 101251
09:00+27св22330 0.0 1011712
12:00+32ссв22250 0.0 10101302
15:00+32св22250 0.0 10091443
18:00+28юв12440 0.0 100961
21:00+22ююв32490 0.0 101123
23 июня, ср
ср2300:00+21ю32520 0.0 101227
03:00+20ю32360 0.0 101220
06:00+21юв11490 0.0 101441
09:00+26св32421 0.0 1014975
12:00+30ссв33330 0.0 10121505
15:00+30ссв23320 0.0 10111611
18:00+26с22500 0.0 1013115
21:00+20ююз22590 0.0 101623
24 июня, чт
чт2400:00+20ю22560 0.0 101517
03:00+19ю22630 0.0 101514
06:00+21ююв11610 0.0 101464
09:00+27ссв33430 0.0 1014900
12:00+30с32320 0.0 10131638
15:00+31ссз22260 0.0 10121849
18:00+28з13410 0.0 1013195
21:00+21ююз34490 0.0 101555